Time,TemperatureF,DewpointF,PressureIn,WindDirection,WindDirectionDegrees,WindSpeedMPH,WindSpeedGustMPH,Humidity,HourlyPrecipIn,Conditions,Clouds,dailyrainin,SoftwareType,DateUTC
2013-04-26 00:00:00,49.9,28.9,30.30,NW,310,0.0,2.0,44,0.00,,---,0.00,VWS V14.01,2013-04-26 04:00:00,
2013-04-26 00:01:00,49.9,28.3,30.30,NW,310,0.0,2.0,43,0.00,,---,0.00,VWS V14.01,2013-04-26 04:01:00,
2013-04-26 00:06:00,50.1,27.9,30.30,NW,310,0.0,3.0,42,0.00,,---,0.00,VWS V14.01,2013-04-26 04:06:00,
2013-04-26 00:11:00,50.1,27.3,30.30,NW,310,1.0,3.0,41,0.00,,---,0.00,VWS V14.01,2013-04-26 04:11:00,
2013-04-26 00:16:00,50.3,28.1,30.31,NW,311,2.0,3.0,42,0.00,,---,0.00,VWS V14.01,2013-04-26 04:16:00,
2013-04-26 00:21:00,50.3,27.5,30.31,NW,315,0.0,5.0,41,0.00,,---,0.00,VWS V14.01,2013-04-26 04:21:00,
2013-04-26 00:26:00,50.3,27.5,30.31,NW,313,2.0,5.0,41,0.00,,---,0.00,VWS V14.01,2013-04-26 04:26:00,
2013-04-26 00:30:00,50.3,27.5,30.31,NW,313,4.0,5.0,41,0.00,,---,0.00,VWS V14.01,2013-04-26 04:30:00,
2013-04-26 00:31:00,50.3,27.5,30.31,NW,313,3.0,5.0,41,0.00,,---,0.00,VWS V14.01,2013-04-26 04:31:00,
2013-04-26 00:36:00,50.0,28.4,30.31,NW,315,0.0,5.0,43,0.00,,---,0.00,VWS V14.01,2013-04-26 04:36:00,
2013-04-26 00:41:00,49.7,28.1,30.31,NW,319,2.0,5.0,43,0.00,,---,0.00,VWS V14.01,2013-04-26 04:41:00,
2013-04-26 00:46:00,49.6,28.6,30.31,NNW,327,0.0,5.0,44,0.00,,---,0.00,VWS V14.01,2013-04-26 04:46:00,
2013-04-26 00:51:00,49.2,28.8,30.31,NW,326,2.0,5.0,45,0.00,,---,0.00,VWS V14.01,2013-04-26 04:51:00,
2013-04-26 00:56:00,48.9,28.0,30.32,NW,326,0.0,5.0,44,0.00,,---,0.00,VWS V14.01,2013-04-26 04:56:00,
2013-04-26 01:00:00,48.9,28.0,30.32,NW,326,2.0,5.0,44,0.00,,---,0.00,VWS V14.01,2013-04-26 05:00:00,
2013-04-26 01:01:00,48.8,28.4,30.32,NW,326,0.0,3.0,45,0.00,,---,0.00,VWS V14.01,2013-04-26 05:01:00,
2013-04-26 01:06:00,48.8,27.9,30.32,NW,326,2.0,3.0,44,0.00,,---,0.00,VWS V14.01,2013-04-26 05:06:00,
2013-04-26 01:11:00,48.8,27.9,30.32,NW,326,0.0,4.0,44,0.00,,---,0.00,VWS V14.01,2013-04-26 05:11:00,
2013-04-26 01:16:00,48.8,29.0,30.32,NW,326,0.0,4.0,46,0.00,,---,0.00,VWS V14.01,2013-04-26 05:16:00,
2013-04-26 01:21:00,48.4,28.6,30.32,NW,326,0.0,4.0,46,0.00,,---,0.00,VWS V14.01,2013-04-26 05:21:00,
2013-04-26 01:26:00,47.9,29.7,30.32,NW,326,1.0,4.0,49,0.00,,---,0.00,VWS V14.01,2013-04-26 05:26:00,
2013-04-26 01:30:00,47.5,29.8,30.32,NW,326,2.0,4.0,50,0.00,,---,0.00,VWS V14.01,2013-04-26 05:30:00,
2013-04-26 01:31:00,47.3,29.1,30.32,NW,326,0.0,3.0,49,0.00,,---,0.00,VWS V14.01,2013-04-26 05:31:00,
2013-04-26 01:36:00,46.8,29.2,30.32,NW,326,0.0,3.0,50,0.00,,---,0.00,VWS V14.01,2013-04-26 05:36:00,
2013-04-26 01:41:00,46.4,29.3,30.32,NW,326,0.0,3.0,51,0.00,,---,0.00,VWS V14.01,2013-04-26 05:41:00,
2013-04-26 01:46:00,46.1,29.9,30.32,NW,326,0.0,3.0,53,0.00,,---,0.00,VWS V14.01,2013-04-26 05:46:00,
2013-04-26 01:51:00,45.6,30.4,30.32,NW,326,0.0,3.0,55,0.00,,---,0.00,VWS V14.01,2013-04-26 05:51:00,
2013-04-26 01:56:00,45.2,31.7,30.32,NW,326,0.0,3.0,59,0.00,,---,0.00,VWS V14.01,2013-04-26 05:56:00,
2013-04-26 02:00:00,44.8,30.9,30.32,NW,326,0.0,3.0,58,0.00,,---,0.00,VWS V14.01,2013-04-26 06:00:00,
2013-04-26 02:01:00,44.6,31.6,30.32,NW,326,0.0,0.0,60,0.00,,---,0.00,VWS V14.01,2013-04-26 06:01:00,
2013-04-26 02:06:00,43.9,31.7,30.32,NW,326,0.0,0.0,62,0.00,,---,0.00,VWS V14.01,2013-04-26 06:06:00,
2013-04-26 02:11:00,43.3,32.3,30.32,NW,326,2.0,3.0,65,0.00,,---,0.00,VWS V14.01,2013-04-26 06:11:00,
2013-04-26 02:16:00,42.8,31.5,30.32,NW,326,0.0,3.0,64,0.00,,---,0.00,VWS V14.01,2013-04-26 06:16:00,
2013-04-26 02:21:00,42.5,30.8,30.32,NW,326,0.0,3.0,63,0.00,,---,0.00,VWS V14.01,2013-04-26 06:21:00,
2013-04-26 02:26:00,42.5,31.2,30.32,NW,326,3.0,4.0,64,0.00,,---,0.00,VWS V14.01,2013-04-26 06:26:00,
2013-04-26 02:30:00,42.5,31.2,30.32,NW,326,1.0,4.0,64,0.00,,---,0.00,VWS V14.01,2013-04-26 06:30:00,
2013-04-26 02:31:00,42.5,31.2,30.32,NW,326,3.0,4.0,64,0.00,,---,0.00,VWS V14.01,2013-04-26 06:31:00,
2013-04-26 02:36:00,42.3,31.8,30.32,NW,326,2.0,4.0,66,0.00,,---,0.00,VWS V14.01,2013-04-26 06:36:00,
2013-04-26 02:41:00,41.9,32.1,30.32,NW,326,2.0,4.0,68,0.00,,---,0.00,VWS V14.01,2013-04-26 06:41:00,
2013-04-26 02:46:00,41.6,32.2,30.32,NW,326,2.0,4.0,69,0.00,,---,0.00,VWS V14.01,2013-04-26 06:46:00,
2013-04-26 02:51:00,41.3,32.3,30.32,NW,326,3.0,4.0,70,0.00,,---,0.00,VWS V14.01,2013-04-26 06:51:00,
2013-04-26 02:56:00,41.0,32.0,30.32,NW,326,2.0,4.0,70,0.00,,---,0.00,VWS V14.01,2013-04-26 06:56:00,
2013-04-26 03:00:00,40.9,31.5,30.32,NW,326,2.0,4.0,69,0.00,,---,0.00,VWS V14.01,2013-04-26 07:00:00,
2013-04-26 03:01:00,40.8,31.8,30.32,NW,326,1.0,3.0,70,0.00,,---,0.00,VWS V14.01,2013-04-26 07:01:00,
2013-04-26 03:06:00,40.7,31.3,30.32,NW,326,0.0,3.0,69,0.00,,---,0.00,VWS V14.01,2013-04-26 07:06:00,
2013-04-26 03:11:00,40.6,32.0,30.32,NW,326,0.0,3.0,71,0.00,,---,0.00,VWS V14.01,2013-04-26 07:11:00,
2013-04-26 03:16:00,40.5,32.2,30.32,NW,326,0.0,3.0,72,0.00,,---,0.00,VWS V14.01,2013-04-26 07:16:00,
2013-04-26 03:21:00,40.3,32.3,30.32,NW,326,0.0,3.0,73,0.00,,---,0.00,VWS V14.01,2013-04-26 07:21:00,
2013-04-26 03:26:00,40.1,32.5,30.32,NW,326,0.0,3.0,74,0.00,,---,0.00,VWS V14.01,2013-04-26 07:26:00,
2013-04-26 03:30:00,39.9,32.6,30.32,NW,326,2.0,3.0,75,0.00,,---,0.00,VWS V14.01,2013-04-26 07:30:00,
2013-04-26 03:31:00,39.8,32.5,30.32,NW,326,1.0,3.0,75,0.00,,---,0.00,VWS V14.01,2013-04-26 07:31:00,
2013-04-26 03:36:00,39.5,32.6,30.32,NW,326,2.0,3.0,76,0.00,,---,0.00,VWS V14.01,2013-04-26 07:36:00,
2013-04-26 03:41:00,39.3,32.7,30.32,NW,326,3.0,3.0,77,0.00,,---,0.00,VWS V14.01,2013-04-26 07:41:00,
2013-04-26 03:46:00,39.0,32.7,30.33,NW,326,2.0,3.0,78,0.00,,---,0.00,VWS V14.01,2013-04-26 07:46:00,
2013-04-26 03:51:00,38.7,32.4,30.33,NW,326,2.0,3.0,78,0.00,,---,0.00,VWS V14.01,2013-04-26 07:51:00,
2013-04-26 03:56:00,38.5,32.6,30.33,NW,326,1.0,3.0,79,0.00,,---,0.00,VWS V14.01,2013-04-26 07:56:00,
2013-04-26 04:00:00,38.4,32.5,30.33,NW,326,0.0,3.0,79,0.00,,---,0.00,VWS V14.01,2013-04-26 08:00:00,
2013-04-26 04:01:00,38.3,32.7,30.33,NW,326,0.0,0.0,80,0.00,,---,0.00,VWS V14.01,2013-04-26 08:01:00,
2013-04-26 04:06:00,38.2,32.6,30.33,NW,326,0.0,0.0,80,0.00,,---,0.00,VWS V14.01,2013-04-26 08:06:00,
2013-04-26 04:11:00,38.2,32.6,30.33,NW,326,0.0,0.0,80,0.00,,---,0.00,VWS V14.01,2013-04-26 08:11:00,
2013-04-26 04:16:00,38.2,32.6,30.33,NW,326,0.0,0.0,80,0.00,,---,0.00,VWS V14.01,2013-04-26 08:16:00,
2013-04-26 04:21:00,38.2,32.6,30.33,NW,326,0.0,0.0,80,0.00,,---,0.00,VWS V14.01,2013-04-26 08:21:00,
2013-04-26 04:26:00,38.0,32.4,30.33,NW,326,0.0,0.0,80,0.00,,---,0.00,VWS V14.01,2013-04-26 08:26:00,
2013-04-26 04:30:00,37.9,32.3,30.33,NW,326,0.0,0.0,80,0.00,,---,0.00,VWS V14.01,2013-04-26 08:30:00,
2013-04-26 04:31:00,37.8,32.2,30.33,NW,326,0.0,0.0,80,0.00,,---,0.00,VWS V14.01,2013-04-26 08:31:00,
2013-04-26 04:36:00,37.7,32.4,30.34,NW,326,0.0,0.0,81,0.00,,---,0.00,VWS V14.01,2013-04-26 08:36:00,
2013-04-26 04:41:00,37.4,32.4,30.34,NW,326,0.0,2.0,82,0.00,,---,0.00,VWS V14.01,2013-04-26 08:41:00,
2013-04-26 04:46:00,37.1,32.1,30.34,NW,326,0.0,3.0,82,0.00,,---,0.00,VWS V14.01,2013-04-26 08:46:00,
2013-04-26 04:51:00,37.0,32.3,30.34,NW,326,1.0,3.0,83,0.00,,---,0.00,VWS V14.01,2013-04-26 08:51:00,
2013-04-26 04:56:00,37.0,32.6,30.34,NW,326,0.0,3.0,84,0.00,,---,0.00,VWS V14.01,2013-04-26 08:56:00,
2013-04-26 05:00:00,37.0,32.6,30.34,NW,326,0.0,3.0,84,0.00,,---,0.00,VWS V14.01,2013-04-26 09:00:00,
2013-04-26 05:01:00,36.9,32.5,30.34,NW,326,0.0,0.0,84,0.00,,---,0.00,VWS V14.01,2013-04-26 09:01:00,
2013-04-26 05:06:00,36.8,32.4,30.34,NW,326,0.0,0.0,84,0.00,,---,0.00,VWS V14.01,2013-04-26 09:06:00,
2013-04-26 05:11:00,36.7,32.3,30.34,NW,326,0.0,0.0,84,0.00,,---,0.00,VWS V14.01,2013-04-26 09:11:00,
2013-04-26 05:16:00,36.5,32.1,30.34,NW,326,0.0,0.0,84,0.00,,---,0.00,VWS V14.01,2013-04-26 09:16:00,
2013-04-26 05:21:00,36.3,32.2,30.34,NW,326,0.0,0.0,85,0.00,,---,0.00,VWS V14.01,2013-04-26 09:21:00,
2013-04-26 05:26:00,36.1,32.0,30.35,NW,326,0.0,0.0,85,0.00,,---,0.00,VWS V14.01,2013-04-26 09:26:00,
2013-04-26 05:30:00,36.0,31.9,30.35,NW,326,0.0,0.0,85,0.00,,---,0.00,VWS V14.01,2013-04-26 09:30:00,
2013-04-26 05:31:00,36.0,31.9,30.35,NW,326,0.0,0.0,85,0.00,,---,0.00,VWS V14.01,2013-04-26 09:31:00,
2013-04-26 05:36:00,36.0,31.9,30.35,NW,326,0.0,0.0,85,0.00,,---,0.00,VWS V14.01,2013-04-26 09:36:00,
2013-04-26 05:41:00,36.1,32.0,30.36,NW,326,0.0,0.0,85,0.00,,---,0.00,VWS V14.01,2013-04-26 09:41:00,
2013-04-26 05:46:00,36.1,32.0,30.36,NW,326,0.0,0.0,85,0.00,,---,0.00,VWS V14.01,2013-04-26 09:46:00,
2013-04-26 05:51:00,36.0,31.9,30.36,NW,326,0.0,0.0,85,0.00,,---,0.00,VWS V14.01,2013-04-26 09:51:00,
2013-04-26 05:56:00,35.8,31.7,30.36,NW,326,0.0,0.0,85,0.00,,---,0.00,VWS V14.01,2013-04-26 09:56:00,
2013-04-26 06:00:00,35.6,31.5,30.36,NW,326,0.0,0.0,85,0.00,,---,0.00,VWS V14.01,2013-04-26 10:00:00,
2013-04-26 06:01:00,35.5,31.7,30.36,NW,326,0.0,0.0,86,0.00,,---,0.00,VWS V14.01,2013-04-26 10:01:00,
2013-04-26 06:06:00,35.2,31.4,30.36,NW,326,0.0,0.0,86,0.00,,---,0.00,VWS V14.01,2013-04-26 10:06:00,
2013-04-26 06:11:00,35.0,31.8,30.36,NW,326,1.0,3.0,88,0.00,,---,0.00,VWS V14.01,2013-04-26 10:11:00,
2013-04-26 06:16:00,35.0,32.1,30.36,NW,326,2.0,3.0,89,0.00,,---,0.00,VWS V14.01,2013-04-26 10:16:00,
2013-04-26 06:21:00,35.0,32.1,30.36,NW,326,0.0,3.0,89,0.00,,---,0.00,VWS V14.01,2013-04-26 10:21:00,
2013-04-26 06:26:00,34.9,32.0,30.36,NW,326,2.0,3.0,89,0.00,,---,0.00,VWS V14.01,2013-04-26 10:26:00,
2013-04-26 06:30:00,34.9,32.0,30.37,NW,326,2.0,3.0,89,0.00,,---,0.00,VWS V14.01,2013-04-26 10:30:00,
2013-04-26 06:31:00,34.9,32.0,30.37,NW,326,2.0,2.0,89,0.00,,---,0.00,VWS V14.01,2013-04-26 10:31:00,
2013-04-26 06:36:00,35.0,32.1,30.37,NW,326,0.0,2.0,89,0.00,,---,0.00,VWS V14.01,2013-04-26 10:36:00,
2013-04-26 06:41:00,35.1,32.2,30.37,NW,326,0.0,2.0,89,0.00,,---,0.00,VWS V14.01,2013-04-26 10:41:00,
2013-04-26 06:46:00,35.0,31.8,30.37,NW,326,1.0,2.0,88,0.00,,---,0.00,VWS V14.01,2013-04-26 10:46:00,
2013-04-26 06:51:00,34.8,31.9,30.38,NW,326,0.0,2.0,89,0.00,,---,0.00,VWS V14.01,2013-04-26 10:51:00,
2013-04-26 06:56:00,34.7,31.8,30.38,NW,326,0.0,2.0,89,0.00,,---,0.00,VWS V14.01,2013-04-26 10:56:00,
2013-04-26 07:00:00,34.7,31.8,30.38,NW,326,2.0,2.0,89,0.00,,---,0.00,VWS V14.01,2013-04-26 11:00:00,
2013-04-26 07:01:00,34.6,32.0,30.39,NW,326,2.0,2.0,90,0.00,,---,0.00,VWS V14.01,2013-04-26 11:01:00,
2013-04-26 07:06:00,34.6,32.0,30.39,NW,326,2.0,3.0,90,0.00,,---,0.00,VWS V14.01,2013-04-26 11:06:00,
2013-04-26 07:11:00,34.6,32.0,30.39,NW,326,2.0,3.0,90,0.00,,---,0.00,VWS V14.01,2013-04-26 11:11:00,
2013-04-26 07:16:00,34.7,32.1,30.40,NW,326,0.0,3.0,90,0.00,,---,0.00,VWS V14.01,2013-04-26 11:16:00,
2013-04-26 07:21:00,34.9,32.3,30.40,NW,326,0.0,3.0,90,0.00,,---,0.00,VWS V14.01,2013-04-26 11:21:00,
2013-04-26 07:26:00,35.1,32.7,30.40,NW,326,0.0,3.0,91,0.00,,---,0.00,VWS V14.01,2013-04-26 11:26:00,
2013-04-26 07:30:00,35.3,32.9,30.40,NW,326,0.0,3.0,91,0.00,,---,0.00,VWS V14.01,2013-04-26 11:30:00,
2013-04-26 07:31:00,35.5,33.1,30.40,NW,326,2.0,3.0,91,0.00,,---,0.00,VWS V14.01,2013-04-26 11:31:00,
2013-04-26 07:36:00,35.9,33.5,30.41,NW,326,0.0,3.0,91,0.00,,---,0.00,VWS V14.01,2013-04-26 11:36:00,
2013-04-26 07:41:00,36.3,33.7,30.41,NW,326,0.0,3.0,90,0.00,,---,0.00,VWS V14.01,2013-04-26 11:41:00,
2013-04-26 07:46:00,36.8,33.9,30.41,NW,326,0.0,3.0,89,0.00,,---,0.00,VWS V14.01,2013-04-26 11:46:00,
2013-04-26 07:51:00,37.4,34.5,30.41,NW,326,0.0,3.0,89,0.00,,---,0.00,VWS V14.01,2013-04-26 11:51:00,
2013-04-26 07:56:00,38.1,35.2,30.41,NW,326,1.0,3.0,89,0.00,,---,0.00,VWS V14.01,2013-04-26 11:56:00,
2013-04-26 08:00:00,38.6,35.4,30.42,NW,326,0.0,3.0,88,0.00,,---,0.00,VWS V14.01,2013-04-26 12:00:00,
2013-04-26 08:01:00,38.9,35.7,30.42,NW,326,0.0,0.0,88,0.00,,---,0.00,VWS V14.01,2013-04-26 12:01:00,
2013-04-26 08:06:00,39.8,36.2,30.42,NW,326,0.0,2.0,87,0.00,,---,0.00,VWS V14.01,2013-04-26 12:06:00,
2013-04-26 08:11:00,40.9,36.8,30.42,NW,326,0.0,2.0,85,0.00,,---,0.00,VWS V14.01,2013-04-26 12:11:00,
2013-04-26 08:16:00,42.2,37.7,30.42,NW,326,0.0,2.0,84,0.00,,---,0.00,VWS V14.01,2013-04-26 12:16:00,
2013-04-26 08:21:00,43.5,37.8,30.42,NW,326,0.0,2.0,80,0.00,,---,0.00,VWS V14.01,2013-04-26 12:21:00,
2013-04-26 08:26:00,44.8,39.3,30.43,NW,326,0.0,2.0,81,0.00,,---,0.00,VWS V14.01,2013-04-26 12:26:00,
2013-04-26 08:30:00,45.7,38.9,30.43,NW,326,0.0,2.0,77,0.00,,---,0.00,VWS V14.01,2013-04-26 12:30:00,
2013-04-26 08:31:00,46.2,39.1,30.43,NW,326,0.0,0.0,76,0.00,,---,0.00,VWS V14.01,2013-04-26 12:31:00,
2013-04-26 08:36:00,47.5,40.0,30.43,NW,326,0.0,0.0,75,0.00,,---,0.00,VWS V14.01,2013-04-26 12:36:00,
2013-04-26 08:41:00,48.6,39.6,30.43,NW,326,0.0,0.0,71,0.00,,---,0.00,VWS V14.01,2013-04-26 12:41:00,
2013-04-26 08:46:00,49.8,39.3,30.44,NW,326,0.0,0.0,67,0.00,,---,0.00,VWS V14.01,2013-04-26 12:46:00,
2013-04-26 08:51:00,51.0,39.3,30.44,NW,326,0.0,0.0,64,0.00,,---,0.00,VWS V14.01,2013-04-26 12:51:00,
2013-04-26 08:56:00,52.2,40.4,30.44,NW,326,0.0,1.0,64,0.00,,---,0.00,VWS V14.01,2013-04-26 12:56:00,
2013-04-26 09:00:00,52.9,37.7,30.44,NW,326,0.0,1.0,56,0.00,,---,0.00,VWS V14.01,2013-04-26 13:00:00,
2013-04-26 09:01:00,53.3,37.1,30.44,NW,326,0.0,0.0,54,0.00,,---,0.00,VWS V14.01,2013-04-26 13:01:00,
2013-04-26 09:06:00,54.1,35.9,30.44,NNW,329,0.0,3.0,50,0.00,,---,0.00,VWS V14.01,2013-04-26 13:06:00,
2013-04-26 09:11:00,54.8,38.0,30.44,NE,46,7.0,8.0,53,0.00,,---,0.00,VWS V14.01,2013-04-26 13:11:00,
2013-04-26 09:16:00,55.3,36.0,30.44,ENE,61,0.0,8.0,48,0.00,,---,0.00,VWS V14.01,2013-04-26 13:16:00,
2013-04-26 09:21:00,55.6,36.2,30.44,ENE,59,2.0,8.0,48,0.00,,---,0.00,VWS V14.01,2013-04-26 13:21:00,
2013-04-26 09:26:00,55.9,34.9,30.44,ESE,111,1.0,10.0,45,0.00,,---,0.00,VWS V14.01,2013-04-26 13:26:00,
2013-04-26 09:30:00,56.1,35.1,30.44,East,89,3.0,10.0,45,0.00,,---,0.00,VWS V14.01,2013-04-26 13:30:00,
2013-04-26 09:31:00,56.2,35.7,30.44,ENE,60,4.0,8.0,46,0.00,,---,0.00,VWS V14.01,2013-04-26 13:31:00,
2013-04-26 09:36:00,56.5,39.1,30.44,ENE,75,0.0,8.0,52,0.00,,---,0.00,VWS V14.01,2013-04-26 13:36:00,
2013-04-26 09:41:00,56.9,38.0,30.44,ENE,61,3.0,8.0,49,0.00,,---,0.00,VWS V14.01,2013-04-26 13:41:00,
2013-04-26 09:46:00,57.2,36.1,30.44,ENE,60,5.0,8.0,45,0.00,,---,0.00,VWS V14.01,2013-04-26 13:46:00,
2013-04-26 09:51:00,57.0,35.9,30.44,NNE,28,2.0,8.0,45,0.00,,---,0.00,VWS V14.01,2013-04-26 13:51:00,
2013-04-26 09:56:00,57.0,36.4,30.44,ENE,74,0.0,8.0,46,0.00,,---,0.00,VWS V14.01,2013-04-26 13:56:00,
2013-04-26 10:00:00,57.2,38.2,30.44,East,94,0.0,8.0,49,0.00,,---,0.00,VWS V14.01,2013-04-26 14:00:00,
2013-04-26 10:01:00,57.5,38.5,30.44,ESE,106,5.0,8.0,49,0.00,,---,0.00,VWS V14.01,2013-04-26 14:01:00,
2013-04-26 10:06:00,57.7,38.2,30.44,ENE,77,0.0,8.0,48,0.00,,---,0.00,VWS V14.01,2013-04-26 14:06:00,
2013-04-26 10:11:00,57.5,35.2,30.44,NNW,338,2.0,8.0,43,0.00,,---,0.00,VWS V14.01,2013-04-26 14:11:00,
2013-04-26 10:16:00,57.5,37.5,30.44,East,82,2.0,8.0,47,0.00,,---,0.00,VWS V14.01,2013-04-26 14:16:00,
2013-04-26 10:21:00,57.8,38.3,30.44,East,82,0.0,8.0,48,0.00,,---,0.00,VWS V14.01,2013-04-26 14:21:00,
2013-04-26 10:26:00,58.1,37.5,30.44,SE,128,2.0,8.0,46,0.00,,---,0.00,VWS V14.01,2013-04-26 14:26:00,
2013-04-26 10:30:00,58.3,35.9,30.44,ESE,112,0.0,8.0,43,0.00,,---,0.00,VWS V14.01,2013-04-26 14:30:00,
2013-04-26 10:31:00,58.4,36.0,30.44,ESE,118,2.0,5.0,43,0.00,,---,0.00,VWS V14.01,2013-04-26 14:31:00,
2013-04-26 10:36:00,58.4,37.2,30.44,East,85,4.0,6.0,45,0.00,,---,0.00,VWS V14.01,2013-04-26 14:36:00,
2013-04-26 10:41:00,58.5,35.5,30.45,NE,40,1.0,7.0,42,0.00,,---,0.00,VWS V14.01,2013-04-26 14:41:00,
2013-04-26 10:46:00,58.2,35.8,30.44,NW,323,3.0,8.0,43,0.00,,---,0.00,VWS V14.01,2013-04-26 14:46:00,
2013-04-26 10:51:00,58.3,36.5,30.44,ESE,105,0.0,8.0,44,0.00,,---,0.00,VWS V14.01,2013-04-26 14:51:00,
2013-04-26 10:56:00,58.4,35.4,30.43,ESE,120,0.0,8.0,42,0.00,,---,0.00,VWS V14.01,2013-04-26 14:56:00,
2013-04-26 11:00:00,58.5,37.2,30.43,ENE,78,3.0,9.0,45,0.00,,---,0.00,VWS V14.01,2013-04-26 15:00:00,
2013-04-26 11:01:00,58.5,37.8,30.43,East,90,4.0,10.0,46,0.00,,---,0.00,VWS V14.01,2013-04-26 15:01:00,
2013-04-26 11:06:00,58.7,39.1,30.43,East,80,1.0,10.0,48,0.00,,---,0.00,VWS V14.01,2013-04-26 15:06:00,
2013-04-26 11:11:00,58.7,37.4,30.42,ENE,57,0.0,10.0,45,0.00,,---,0.00,VWS V14.01,2013-04-26 15:11:00,
2013-04-26 11:16:00,58.9,35.3,30.42,ENE,73,0.0,10.0,41,0.00,,---,0.00,VWS V14.01,2013-04-26 15:16:00,
2013-04-26 11:21:00,59.0,36.6,30.42,East,90,1.0,10.0,43,0.00,,---,0.00,VWS V14.01,2013-04-26 15:21:00,
2013-04-26 11:26:00,59.3,38.0,30.42,East,79,2.0,10.0,45,0.00,,---,0.00,VWS V14.01,2013-04-26 15:26:00,
2013-04-26 11:30:00,59.4,36.3,30.42,NE,44,3.0,10.0,42,0.00,,---,0.00,VWS V14.01,2013-04-26 15:30:00,
2013-04-26 11:31:00,59.5,38.2,30.42,North,350,5.0,5.0,45,0.00,,---,0.00,VWS V14.01,2013-04-26 15:31:00,
2013-04-26 11:36:00,59.6,35.9,30.42,NNE,26,2.0,6.0,41,0.00,,---,0.00,VWS V14.01,2013-04-26 15:36:00,
2013-04-26 11:40:00,59.9,39.6,30.42,East,82,0.0,6.0,47,0.00,,---,0.00,VWS V14.01,2013-04-26 15:40:00,
2013-04-26 11:45:00,60.1,38.7,30.42,ENE,71,3.0,6.0,45,0.00,,---,0.00,VWS V14.01,2013-04-26 15:45:00,
2013-04-26 11:50:00,60.0,35.0,30.42,NE,48,0.0,6.0,39,0.00,,---,0.00,VWS V14.01,2013-04-26 15:50:00,
2013-04-26 11:55:00,60.2,35.8,30.42,South,172,0.0,7.0,40,0.00,,---,0.00,VWS V14.01,2013-04-26 15:55:00,
2013-04-26 12:00:00,60.2,37.0,30.42,SE,130,1.0,4.0,42,0.00,,---,0.00,VWS V14.01,2013-04-26 16:00:00,
2013-04-26 12:05:00,60.5,38.5,30.42,SE,142,1.0,7.0,44,0.00,,---,0.00,VWS V14.01,2013-04-26 16:05:00,
2013-04-26 12:10:00,60.7,33.6,30.41,East,98,0.0,7.0,36,0.00,,---,0.00,VWS V14.01,2013-04-26 16:10:00,
2013-04-26 12:15:00,60.9,35.1,30.41,SE,134,2.0,8.0,38,0.00,,---,0.00,VWS V14.01,2013-04-26 16:15:00,
2013-04-26 12:20:00,61.0,35.2,30.41,SE,133,0.0,8.0,38,0.00,,---,0.00,VWS V14.01,2013-04-26 16:20:00,
2013-04-26 12:25:00,60.9,40.0,30.41,SE,134,1.0,8.0,46,0.00,,---,0.00,VWS V14.01,2013-04-26 16:25:00,
2013-04-26 12:30:00,61.1,37.9,30.40,NNE,32,4.0,6.0,42,0.00,,---,0.00,VWS V14.01,2013-04-26 16:30:00,
2013-04-26 12:35:00,60.9,35.8,30.40,North,355,3.0,6.0,39,0.00,,---,0.00,VWS V14.01,2013-04-26 16:35:00,
2013-04-26 12:40:00,60.8,37.0,30.40,North,355,3.0,6.0,41,0.00,,---,0.00,VWS V14.01,2013-04-26 16:40:00,
2013-04-26 12:45:00,61.2,35.4,30.40,South,182,7.0,13.0,38,0.00,,---,0.00,VWS V14.01,2013-04-26 16:45:00,
2013-04-26 12:50:00,61.5,35.7,30.40,SW,223,3.0,13.0,38,0.00,,---,0.00,VWS V14.01,2013-04-26 16:50:00,
2013-04-26 12:55:00,61.9,36.0,30.39,South,190,0.0,13.0,38,0.00,,---,0.00,VWS V14.01,2013-04-26 16:55:00,
2013-04-26 13:00:00,62.5,37.9,30.39,SW,224,3.0,5.0,40,0.00,,---,0.00,VWS V14.01,2013-04-26 17:00:00,
2013-04-26 13:05:00,62.8,40.0,30.40,WSW,241,4.0,7.0,43,0.00,,---,0.00,VWS V14.01,2013-04-26 17:05:00,
2013-04-26 13:10:00,63.2,39.1,30.40,West,259,5.0,7.0,41,0.00,,---,0.00,VWS V14.01,2013-04-26 17:10:00,
2013-04-26 13:15:00,63.4,36.7,30.40,West,265,3.0,7.0,37,0.00,,---,0.00,VWS V14.01,2013-04-26 17:15:00,
2013-04-26 13:20:00,63.5,38.8,30.40,SSE,165,6.0,7.0,40,0.00,,---,0.00,VWS V14.01,2013-04-26 17:20:00,
2013-04-26 13:25:00,63.6,34.0,30.40,South,186,0.0,8.0,33,0.00,,---,0.00,VWS V14.01,2013-04-26 17:25:00,
2013-04-26 13:30:00,63.2,36.5,30.40,NW,324,7.0,8.0,37,0.00,,---,0.00,VWS V14.01,2013-04-26 17:30:00,
2013-04-26 13:35:00,62.8,34.0,30.40,North,360,0.0,8.0,34,0.00,,---,0.00,VWS V14.01,2013-04-26 17:35:00,
2013-04-26 13:40:00,63.1,40.3,30.40,NE,42,0.0,8.0,43,0.00,,---,0.00,VWS V14.01,2013-04-26 17:40:00,
2013-04-26 13:45:00,63.7,36.3,30.40,SE,140,7.0,8.0,36,0.00,,---,0.00,VWS V14.01,2013-04-26 17:45:00,
2013-04-26 13:50:00,63.9,39.1,30.40,SE,130,0.0,8.0,40,0.00,,---,0.00,VWS V14.01,2013-04-26 17:50:00,
2013-04-26 13:55:00,64.2,36.0,30.40,SE,132,0.0,8.0,35,0.00,,---,0.00,VWS V14.01,2013-04-26 17:55:00,
2013-04-26 14:00:00,64.5,37.7,30.40,East,90,2.0,5.0,37,0.00,,---,0.00,VWS V14.01,2013-04-26 18:00:00,
2013-04-26 14:05:00,64.8,35.0,30.40,SE,141,1.0,6.0,33,0.00,,---,0.00,VWS V14.01,2013-04-26 18:05:00,
2013-04-26 14:10:00,64.6,38.4,30.39,SE,140,0.0,7.0,38,0.00,,---,0.00,VWS V14.01,2013-04-26 18:10:00,
2013-04-26 14:15:00,64.8,40.6,30.39,SSE,161,0.0,7.0,41,0.00,,---,0.00,VWS V14.01,2013-04-26 18:15:00,
2013-04-26 14:20:00,65.2,39.0,30.39,WNW,288,5.0,7.0,38,0.00,,---,0.00,VWS V14.01,2013-04-26 18:20:00,
2013-04-26 14:25:00,65.5,38.6,30.39,SSE,166,4.0,8.0,37,0.00,,---,0.00,VWS V14.01,2013-04-26 18:25:00,
2013-04-26 14:30:00,65.7,37.3,30.38,South,183,2.0,2.0,35,0.00,,---,0.00,VWS V14.01,2013-04-26 18:30:00,
2013-04-26 14:35:00,65.7,40.7,30.38,SSE,148,6.0,7.0,40,0.00,,---,0.00,VWS V14.01,2013-04-26 18:35:00,
2013-04-26 14:40:00,65.5,34.9,30.38,SSE,163,0.0,8.0,32,0.00,,---,0.00,VWS V14.01,2013-04-26 18:40:00,
2013-04-26 14:45:00,65.6,40.7,30.38,ESE,108,4.0,8.0,40,0.00,,---,0.00,VWS V14.01,2013-04-26 18:45:00,
2013-04-26 14:50:00,65.3,35.5,30.38,South,171,4.0,8.0,33,0.00,,---,0.00,VWS V14.01,2013-04-26 18:50:00,
2013-04-26 14:55:00,65.2,39.0,30.38,East,95,4.0,8.0,38,0.00,,---,0.00,VWS V14.01,2013-04-26 18:55:00,
2013-04-26 15:00:00,65.4,38.5,30.38,SE,129,1.0,5.0,37,0.00,,---,0.00,VWS V14.01,2013-04-26 19:00:00,
2013-04-26 15:05:00,65.6,35.8,30.37,SE,140,0.0,9.0,33,0.00,,---,0.00,VWS V14.01,2013-04-26 19:05:00,
2013-04-26 15:10:00,65.5,37.2,30.37,SE,124,0.0,9.0,35,0.00,,---,0.00,VWS V14.01,2013-04-26 19:10:00,
2013-04-26 15:15:00,65.5,38.6,30.37,South,181,0.0,9.0,37,0.00,,---,0.00,VWS V14.01,2013-04-26 19:15:00,
2013-04-26 15:20:00,65.9,37.5,30.37,SSE,162,6.0,9.0,35,0.00,,---,0.00,VWS V14.01,2013-04-26 19:20:00,
2013-04-26 15:25:00,66.0,36.1,30.37,SE,133,0.0,9.0,33,0.00,,---,0.00,VWS V14.01,2013-04-26 19:25:00,
2013-04-26 15:30:00,65.8,38.1,30.36,SSE,159,0.0,0.0,36,0.00,,---,0.00,VWS V14.01,2013-04-26 19:30:00,
2013-04-26 15:35:00,66.1,38.4,30.35,ESE,115,2.0,6.0,36,0.00,,---,0.00,VWS V14.01,2013-04-26 19:35:00,
2013-04-26 15:40:00,66.2,37.0,30.35,ESE,119,5.0,7.0,34,0.00,,---,0.00,VWS V14.01,2013-04-26 19:40:00,
2013-04-26 15:45:00,66.2,35.5,30.35,SSE,161,0.0,7.0,32,0.00,,---,0.00,VWS V14.01,2013-04-26 19:45:00,
2013-04-26 15:50:00,66.2,39.2,30.35,ESE,119,2.0,7.0,37,0.00,,---,0.00,VWS V14.01,2013-04-26 19:50:00,
2013-04-26 15:55:00,66.3,37.8,30.35,SSE,149,1.0,7.0,35,0.00,,---,0.00,VWS V14.01,2013-04-26 19:55:00,
2013-04-26 16:00:00,66.2,34.7,30.34,South,184,0.0,1.0,31,0.00,,---,0.00,VWS V14.01,2013-04-26 20:00:00,
2013-04-26 16:05:00,66.2,36.3,30.34,ESE,106,0.0,5.0,33,0.00,,---,0.00,VWS V14.01,2013-04-26 20:05:00,
2013-04-26 16:10:00,66.4,37.2,30.34,ESE,104,2.0,7.0,34,0.00,,---,0.00,VWS V14.01,2013-04-26 20:10:00,
2013-04-26 16:15:00,66.3,35.6,30.34,East,86,4.0,11.0,32,0.00,,---,0.00,VWS V14.01,2013-04-26 20:15:00,
2013-04-26 16:20:00,66.1,37.7,30.33,ESE,103,0.0,11.0,35,0.00,,---,0.00,VWS V14.01,2013-04-26 20:20:00,
2013-04-26 16:25:00,66.4,38.7,30.33,East,90,1.0,11.0,36,0.00,,---,0.00,VWS V14.01,2013-04-26 20:25:00,
2013-04-26 16:30:00,66.6,36.6,30.33,SSE,159,1.0,6.0,33,0.00,,---,0.00,VWS V14.01,2013-04-26 20:30:00,
2013-04-26 16:35:00,66.5,36.5,30.33,SSW,201,0.0,6.0,33,0.00,,---,0.00,VWS V14.01,2013-04-26 20:35:00,
2013-04-26 16:40:00,66.7,36.7,30.33,East,90,0.0,6.0,33,0.00,,---,0.00,VWS V14.01,2013-04-26 20:40:00,
2013-04-26 16:45:00,66.9,35.3,30.33,South,178,0.0,7.0,31,0.00,,---,0.00,VWS V14.01,2013-04-26 20:45:00,
2013-04-26 16:50:00,66.8,38.3,30.33,East,84,0.0,7.0,35,0.00,,---,0.00,VWS V14.01,2013-04-26 20:50:00,
2013-04-26 16:55:00,66.8,36.0,30.32,SSE,149,0.0,7.0,32,0.00,,---,0.00,VWS V14.01,2013-04-26 20:55:00,
2013-04-26 17:00:00,66.5,38.8,30.32,SE,125,6.0,6.0,36,0.00,,---,0.00,VWS V14.01,2013-04-26 21:00:00,
2013-04-26 17:05:00,66.3,37.1,30.31,SE,139,0.0,7.0,34,0.00,,---,0.00,VWS V14.01,2013-04-26 21:05:00,
2013-04-26 17:10:00,66.4,37.9,30.31,ESE,109,2.0,7.0,35,0.00,,---,0.00,VWS V14.01,2013-04-26 21:10:00,
2013-04-26 17:15:00,66.6,37.4,30.31,SW,221,2.0,7.0,34,0.00,,---,0.00,VWS V14.01,2013-04-26 21:15:00,
2013-04-26 17:20:00,66.5,35.0,30.31,SE,134,1.0,7.0,31,0.00,,---,0.00,VWS V14.01,2013-04-26 21:20:00,
2013-04-26 17:25:00,66.3,36.4,30.31,ENE,67,0.0,7.0,33,0.00,,---,0.00,VWS V14.01,2013-04-26 21:25:00,
2013-04-26 17:30:00,66.3,39.3,30.31,ESE,103,0.0,1.0,37,0.00,,---,0.00,VWS V14.01,2013-04-26 21:30:00,
2013-04-26 17:35:00,66.1,36.2,30.31,SE,129,0.0,4.0,33,0.00,,---,0.00,VWS V14.01,2013-04-26 21:35:00,
2013-04-26 17:40:00,66.0,38.3,30.31,SE,139,1.0,6.0,36,0.00,,---,0.00,VWS V14.01,2013-04-26 21:40:00,
2013-04-26 17:45:00,66.0,36.8,30.31,ESE,115,0.0,8.0,34,0.00,,---,0.00,VWS V14.01,2013-04-26 21:45:00,
2013-04-26 17:50:00,66.1,38.4,30.31,SE,128,7.0,8.0,36,0.00,,---,0.00,VWS V14.01,2013-04-26 21:50:00,
2013-04-26 17:55:00,65.9,38.2,30.31,South,177,2.0,9.0,36,0.00,,---,0.00,VWS V14.01,2013-04-26 21:55:00,
2013-04-26 18:00:00,65.8,37.4,30.31,ESE,108,0.0,5.0,35,0.00,,---,0.00,VWS V14.01,2013-04-26 22:00:00,
2013-04-26 18:05:00,65.8,37.4,30.30,ESE,119,0.0,7.0,35,0.00,,---,0.00,VWS V14.01,2013-04-26 22:05:00,
2013-04-26 18:10:00,65.7,36.6,30.31,SE,144,0.0,7.0,34,0.00,,---,0.00,VWS V14.01,2013-04-26 22:10:00,
2013-04-26 18:15:00,65.6,38.0,30.31,SE,124,0.0,7.0,36,0.00,,---,0.00,VWS V14.01,2013-04-26 22:15:00,
2013-04-26 18:20:00,65.5,39.2,30.31,SE,140,0.0,7.0,38,0.00,,---,0.00,VWS V14.01,2013-04-26 22:20:00,
2013-04-26 18:25:00,65.4,37.8,30.31,South,182,0.0,7.0,36,0.00,,---,0.00,VWS V14.01,2013-04-26 22:25:00,
2013-04-26 18:30:00,65.3,37.7,30.32,South,188,3.0,3.0,36,0.00,,---,0.00,VWS V14.01,2013-04-26 22:30:00,
2013-04-26 18:35:00,65.1,37.5,30.32,SE,134,4.0,4.0,36,0.00,,---,0.00,VWS V14.01,2013-04-26 22:35:00,
2013-04-26 18:40:00,64.9,35.9,30.32,East,89,1.0,9.0,34,0.00,,---,0.00,VWS V14.01,2013-04-26 22:40:00,
2013-04-26 18:45:00,64.7,37.2,30.32,SE,134,0.0,9.0,36,0.00,,---,0.00,VWS V14.01,2013-04-26 22:45:00,
2013-04-26 18:50:00,64.5,37.7,30.32,ESE,115,0.0,9.0,37,0.00,,---,0.00,VWS V14.01,2013-04-26 22:50:00,
2013-04-26 18:55:00,64.4,38.3,30.32,SSE,168,0.0,9.0,38,0.00,,---,0.00,VWS V14.01,2013-04-26 22:55:00,
2013-04-26 19:00:00,64.3,38.2,30.32,SSE,163,1.0,1.0,38,0.00,,---,0.00,VWS V14.01,2013-04-26 23:00:00,
2013-04-26 19:05:00,64.1,38.0,30.33,East,86,0.0,5.0,38,0.00,,---,0.00,VWS V14.01,2013-04-26 23:05:00,
2013-04-26 19:10:00,64.0,37.9,30.33,SE,127,0.0,5.0,38,0.00,,---,0.00,VWS V14.01,2013-04-26 23:10:00,
2013-04-26 19:15:00,63.8,38.4,30.33,ESE,116,2.0,5.0,39,0.00,,---,0.00,VWS V14.01,2013-04-26 23:15:00,
2013-04-26 19:20:00,63.6,37.5,30.33,SE,144,0.0,5.0,38,0.00,,---,0.00,VWS V14.01,2013-04-26 23:20:00,
2013-04-26 19:25:00,63.3,37.3,30.33,SE,145,0.0,5.0,38,0.00,,---,0.00,VWS V14.01,2013-04-26 23:25:00,
2013-04-26 19:30:00,63.1,37.8,30.33,SSW,193,0.0,0.0,39,0.00,,---,0.00,VWS V14.01,2013-04-26 23:30:00,
2013-04-26 19:35:00,62.8,37.5,30.33,SSE,159,0.0,2.0,39,0.00,,---,0.00,VWS V14.01,2013-04-26 23:35:00,
2013-04-26 19:40:00,62.5,38.5,30.33,SSE,148,0.0,4.0,41,0.00,,---,0.00,VWS V14.01,2013-04-26 23:40:00,
2013-04-26 19:45:00,62.2,38.8,30.33,South,187,0.0,4.0,42,0.00,,---,0.00,VWS V14.01,2013-04-26 23:45:00,
2013-04-26 19:50:00,62.0,38.0,30.34,South,187,0.0,4.0,41,0.00,,---,0.00,VWS V14.01,2013-04-26 23:50:00,
2013-04-26 20:00:00,61.5,37.6,30.34,South,187,0.0,4.0,41,0.00,,---,0.00,VWS V14.01,2013-04-27 00:00:00,
2013-04-26 20:06:00,61.1,37.9,30.34,South,187,0.0,0.0,42,0.00,,---,0.00,VWS V14.01,2013-04-27 00:06:00,
2013-04-26 20:11:00,60.7,38.1,30.35,South,187,0.0,0.0,43,0.00,,---,0.00,VWS V14.01,2013-04-27 00:11:00,
2013-04-26 20:16:00,60.4,39.0,30.35,South,187,0.0,0.0,45,0.00,,---,0.00,VWS V14.01,2013-04-27 00:16:00,
2013-04-26 20:21:00,60.0,38.0,30.34,South,187,0.0,0.0,44,0.00,,---,0.00,VWS V14.01,2013-04-27 00:21:00,
2013-04-26 20:26:00,59.7,37.8,30.34,South,187,0.0,0.0,44,0.00,,---,0.00,VWS V14.01,2013-04-27 00:26:00,
2013-04-26 20:30:00,59.5,38.7,30.34,South,187,0.0,0.0,46,0.00,,---,0.00,VWS V14.01,2013-04-27 00:30:00,
2013-04-26 20:31:00,59.4,38.6,30.34,South,187,0.0,0.0,46,0.00,,---,0.00,VWS V14.01,2013-04-27 00:31:00,
2013-04-26 20:36:00,59.2,39.0,30.35,South,187,0.0,0.0,47,0.00,,---,0.00,VWS V14.01,2013-04-27 00:36:00,
2013-04-26 20:41:00,59.0,39.4,30.35,South,187,0.0,0.0,48,0.00,,---,0.00,VWS V14.01,2013-04-27 00:41:00,
2013-04-26 20:46:00,58.7,38.5,30.35,South,187,0.0,0.0,47,0.00,,---,0.00,VWS V14.01,2013-04-27 00:46:00,
2013-04-26 20:51:00,58.6,38.5,30.35,South,187,0.0,0.0,47,0.00,,---,0.00,VWS V14.01,2013-04-27 00:51:00,
2013-04-26 20:56:00,58.4,38.3,30.35,South,187,0.0,0.0,47,0.00,,---,0.00,VWS V14.01,2013-04-27 00:56:00,
2013-04-26 21:00:00,58.2,38.1,30.35,South,187,0.0,0.0,47,0.00,,---,0.00,VWS V14.01,2013-04-27 01:00:00,
2013-04-26 21:01:00,58.1,38.5,30.35,South,187,0.0,0.0,48,0.00,,---,0.00,VWS V14.01,2013-04-27 01:01:00,
2013-04-26 21:06:00,57.9,38.9,30.35,South,187,0.0,0.0,49,0.00,,---,0.00,VWS V14.01,2013-04-27 01:06:00,
2013-04-26 21:11:00,57.7,39.7,30.35,South,187,0.0,0.0,51,0.00,,---,0.00,VWS V14.01,2013-04-27 01:11:00,
2013-04-26 21:16:00,57.5,40.0,30.35,South,187,0.0,0.0,52,0.00,,---,0.00,VWS V14.01,2013-04-27 01:16:00,
2013-04-26 21:21:00,57.2,39.8,30.35,South,187,0.0,0.0,52,0.00,,---,0.00,VWS V14.01,2013-04-27 01:21:00,
2013-04-26 21:26:00,57.0,39.6,30.35,South,187,0.0,0.0,52,0.00,,---,0.00,VWS V14.01,2013-04-27 01:26:00,
2013-04-26 21:30:00,56.9,40.4,30.36,South,187,0.0,0.0,54,0.00,,---,0.00,VWS V14.01,2013-04-27 01:30:00,
2013-04-26 21:31:00,56.8,40.8,30.36,South,187,0.0,0.0,55,0.00,,---,0.00,VWS V14.01,2013-04-27 01:31:00,
2013-04-26 21:36:00,56.6,40.6,30.36,South,187,0.0,0.0,55,0.00,,---,0.00,VWS V14.01,2013-04-27 01:36:00,
2013-04-26 21:41:00,56.3,40.4,30.36,South,187,0.0,0.0,55,0.00,,---,0.00,VWS V14.01,2013-04-27 01:41:00,
2013-04-26 21:46:00,56.2,40.7,30.36,South,187,0.0,0.0,56,0.00,,---,0.00,VWS V14.01,2013-04-27 01:46:00,
2013-04-26 21:51:00,55.9,40.5,30.36,South,187,0.0,0.0,56,0.00,,---,0.00,VWS V14.01,2013-04-27 01:51:00,
2013-04-26 21:56:00,55.8,40.8,30.36,South,187,0.0,0.0,57,0.00,,---,0.00,VWS V14.01,2013-04-27 01:56:00,
2013-04-26 22:00:00,55.7,40.7,30.36,South,187,0.0,0.0,57,0.00,,---,0.00,VWS V14.01,2013-04-27 02:00:00,
2013-04-26 22:01:00,55.7,40.7,30.36,South,187,0.0,0.0,57,0.00,,---,0.00,VWS V14.01,2013-04-27 02:01:00,
2013-04-26 22:06:00,55.5,40.5,30.36,South,187,0.0,0.0,57,0.00,,---,0.00,VWS V14.01,2013-04-27 02:06:00,
2013-04-26 22:11:00,55.3,41.2,30.36,South,187,0.0,0.0,59,0.00,,---,0.00,VWS V14.01,2013-04-27 02:11:00,
2013-04-26 22:16:00,55.1,41.9,30.36,South,187,0.0,0.0,61,0.00,,---,0.00,VWS V14.01,2013-04-27 02:16:00,
2013-04-26 22:21:00,54.9,41.7,30.36,South,187,0.0,0.0,61,0.00,,---,0.00,VWS V14.01,2013-04-27 02:21:00,
2013-04-26 22:26:00,54.8,42.5,30.36,South,187,0.0,0.0,63,0.00,,---,0.00,VWS V14.01,2013-04-27 02:26:00,
2013-04-26 22:30:00,54.6,41.4,30.36,South,187,0.0,0.0,61,0.00,,---,0.00,VWS V14.01,2013-04-27 02:30:00,
2013-04-26 22:31:00,54.5,41.3,30.36,South,187,0.0,0.0,61,0.00,,---,0.00,VWS V14.01,2013-04-27 02:31:00,
2013-04-26 22:36:00,54.4,41.2,30.36,South,187,0.0,0.0,61,0.00,,---,0.00,VWS V14.01,2013-04-27 02:36:00,
2013-04-26 22:41:00,54.3,41.2,30.36,South,187,0.0,0.0,61,0.00,,---,0.00,VWS V14.01,2013-04-27 02:41:00,
2013-04-26 22:46:00,54.2,41.5,30.36,South,187,0.0,0.0,62,0.00,,---,0.00,VWS V14.01,2013-04-27 02:46:00,
2013-04-26 22:51:00,54.2,41.9,30.36,South,187,0.0,0.0,63,0.00,,---,0.00,VWS V14.01,2013-04-27 02:51:00,
2013-04-26 22:56:00,54.1,42.6,30.36,South,187,0.0,0.0,65,0.00,,---,0.00,VWS V14.01,2013-04-27 02:56:00,
2013-04-26 23:00:00,54.0,42.5,30.36,South,187,0.0,0.0,65,0.00,,---,0.00,VWS V14.01,2013-04-27 03:00:00,
2013-04-26 23:01:00,54.0,41.7,30.36,South,187,0.0,0.0,63,0.00,,---,0.00,VWS V14.01,2013-04-27 03:01:00,
2013-04-26 23:06:00,53.9,42.0,30.36,South,187,0.0,0.0,64,0.00,,---,0.00,VWS V14.01,2013-04-27 03:06:00,
2013-04-26 23:11:00,53.7,42.2,30.35,South,187,0.0,0.0,65,0.00,,---,0.00,VWS V14.01,2013-04-27 03:11:00,
2013-04-26 23:16:00,53.7,41.8,30.35,South,187,0.0,0.0,64,0.00,,---,0.00,VWS V14.01,2013-04-27 03:16:00,
2013-04-26 23:21:00,53.6,42.5,30.35,South,187,0.0,0.0,66,0.00,,---,0.00,VWS V14.01,2013-04-27 03:21:00,
2013-04-26 23:26:00,53.5,42.4,30.35,South,187,0.0,0.0,66,0.00,,---,0.00,VWS V14.01,2013-04-27 03:26:00,
2013-04-26 23:30:00,53.4,42.7,30.35,South,187,0.0,0.0,67,0.00,,---,0.00,VWS V14.01,2013-04-27 03:30:00,
2013-04-26 23:31:00,53.3,42.2,30.35,South,187,0.0,0.0,66,0.00,,---,0.00,VWS V14.01,2013-04-27 03:31:00,
2013-04-26 23:36:00,53.3,42.2,30.35,South,187,0.0,0.0,66,0.00,,---,0.00,VWS V14.01,2013-04-27 03:36:00,
2013-04-26 23:41:00,53.2,42.2,30.35,South,187,0.0,0.0,66,0.00,,---,0.00,VWS V14.01,2013-04-27 03:41:00,
2013-04-26 23:46:00,53.2,41.8,30.35,South,187,0.0,0.0,65,0.00,,---,0.00,VWS V14.01,2013-04-27 03:46:00,
2013-04-26 23:51:00,53.2,42.9,30.35,South,187,0.0,0.0,68,0.00,,---,0.00,VWS V14.01,2013-04-27 03:51:00,
2013-04-26 23:56:00,53.1,43.2,30.35,South,187,0.0,0.0,69,0.00,,---,0.00,VWS V14.01,2013-04-27 03:56:00,